owner,sensor,date,latitude,longitude,vertical_datum,wind_speed,wind_to_direction,wind_speed_of_gust,qcFlag 
WAVCIS,ioos:station:WAVCIS:CSI03:3,2010-07-01T00:00:00Z,29.4412,-92.0613,10.0,10.88,79.0,,'11111222,11111222,99999999' 
WAVCIS,ioos:station:WAVCIS:CSI03:3,2010-07-01T01:00:00Z,29.4412,-92.0613,10.0,10.98,95.0,,'11111222,11111222,99999999' 
WAVCIS,ioos:station:WAVCIS:CSI03:3,2010-07-01T02:00:00Z,29.4412,-92.0613,10.0,9.94,104.0,,'11111222,11111222,99999999' 
WAVCIS,ioos:station:WAVCIS:CSI03:3,2010-07-01T03:00:00Z,29.4412,-92.0613,10.0,9.69,99.0,,'11111222,11111222,99999999' 
WAVCIS,ioos:station:WAVCIS:CSI03:3,2010-07-01T04:00:00Z,29.4412,-92.0613,10.0,9.83,108.0,,'11111222,11111222,99999999' 
WAVCIS,ioos:station:WAVCIS:CSI03:3,2010-07-01T05:00:00Z,29.4412,-92.0613,10.0,9.24,104.0,,'11111222,11111222,99999999' 
WAVCIS,ioos:station:WAVCIS:CSI03:3,2010-07-01T06:00:00Z,29.4412,-92.0613,10.0,9.0,75.0,,'11111222,11111222,99999999' 
WAVCIS,ioos:station:WAVCIS:CSI03:3,2010-07-01T07:00:00Z,29.4412,-92.0613,10.0,9.73,84.0,,'11111222,11111222,99999999' 
WAVCIS,ioos:station:WAVCIS:CSI03:3,2010-07-01T08:00:00Z,29.4412,-92.0613,10.0,8.77,89.0,,'11111222,11111222,99999999' 
WAVCIS,ioos:station:WAVCIS:CSI03:3,2010-07-01T09:00:00Z,29.4412,-92.0613,10.0,9.03,90.0,,'11111222,11111222,99999999' 
WAVCIS,ioos:station:WAVCIS:CSI03:3,2010-07-01T10:00:00Z,29.4412,-92.0613,10.0,7.17,102.0,,'11111222,11111222,99999999' 
WAVCIS,ioos:station:WAVCIS:CSI03:3,2010-07-01T11:00:00Z,29.4412,-92.0613,10.0,10.84,85.0,,'11111222,11111222,99999999' 
WAVCIS,ioos:station:WAVCIS:CSI03:3,2010-07-01T12:00:00Z,29.4412,-92.0613,10.0,9.93,94.0,,'11111222,11111222,99999999' 
WAVCIS,ioos:station:WAVCIS:CSI03:3,2010-07-01T13:00:00Z,29.4412,-92.0613,10.0,8.46,109.0,,'11111222,11111222,99999999' 
WAVCIS,ioos:station:WAVCIS:CSI03:3,2010-07-01T14:00:00Z,29.4412,-92.0613,10.0,8.75,129.0,,'11111222,11111222,99999999' 
WAVCIS,ioos:station:WAVCIS:CSI03:3,2010-07-01T15:00:00Z,29.4412,-92.0613,10.0,8.8,126.0,,'11111222,11111222,99999999' 
WAVCIS,ioos:station:WAVCIS:CSI03:3,2010-07-01T16:00:00Z,29.4412,-92.0613,10.0,9.75,129.0,,'11111222,11111222,99999999' 
WAVCIS,ioos:station:WAVCIS:CSI03:3,2010-07-01T17:00:00Z,29.4412,-92.0613,10.0,9.73,121.0,,'11111222,11111222,99999999' 
WAVCIS,ioos:station:WAVCIS:CSI03:3,2010-07-01T18:00:00Z,29.4412,-92.0613,10.0,10.21,136.0,,'11111222,11111222,99999999' 
WAVCIS,ioos:station:WAVCIS:CSI03:3,2010-07-01T19:00:00Z,29.4412,-92.0613,10.0,9.61,133.0,,'11111222,11111222,99999999' 
WAVCIS,ioos:station:WAVCIS:CSI03:3,2010-07-01T20:00:00Z,29.4412,-92.0613,10.0,10.08,139.0,,'11111222,11111222,99999999' 
WAVCIS,ioos:station:WAVCIS:CSI03:3,2010-07-01T21:00:00Z,29.4412,-92.0613,10.0,9.06,138.0,,'11111222,11111222,99999999' 
WAVCIS,ioos:station:WAVCIS:CSI03:3,2010-07-01T22:00:00Z,29.4412,-92.0613,10.0,8.4,129.0,,'11111222,11111222,99999999' 
WAVCIS,ioos:station:WAVCIS:CSI03:3,2010-07-01T23:00:00Z,29.4412,-92.0613,10.0,8.46,119.0,,'11111222,11111222,99999999' 
WAVCIS,ioos:station:WAVCIS:CSI03:3,2010-07-02T00:00:00Z,29.4412,-92.0613,10.0,8.94,120.0,,'11111222,11111222,99999999' 
WAVCIS,ioos:station:WAVCIS:CSI03:3,2010-07-02T01:00:00Z,29.4412,-92.0613,10.0,9.72,100.0,,'11111222,11111222,99999999' 
WAVCIS,ioos:station:WAVCIS:CSI03:3,2010-07-02T02:00:00Z,29.4412,-92.0613,10.0,9.34,97.0,,'11111222,11111222,99999999' 
WAVCIS,ioos:station:WAVCIS:CSI03:3,2010-07-02T03:00:00Z,29.4412,-92.0613,10.0,8.96,100.0,,'11111222,11111222,99999999' 
WAVCIS,ioos:station:WAVCIS:CSI03:3,2010-07-02T04:00:00Z,29.4412,-92.0613,10.0,8.69,105.0,,'11111222,11111222,99999999' 
WAVCIS,ioos:station:WAVCIS:CSI03:3,2010-07-02T05:00:00Z,29.4412,-92.0613,10.0,8.37,108.0,,'11111222,11111222,99999999' 
WAVCIS,ioos:station:WAVCIS:CSI03:3,2010-07-02T06:00:00Z,29.4412,-92.0613,10.0,8.98,108.0,,'11111222,11111222,99999999' 
WAVCIS,ioos:station:WAVCIS:CSI03:3,2010-07-02T07:00:00Z,29.4412,-92.0613,10.0,8.34,108.0,,'11111222,11111222,99999999' 
WAVCIS,ioos:station:WAVCIS:CSI03:3,2010-07-02T08:00:00Z,29.4412,-92.0613,10.0,7.23,113.0,,'11111222,11111222,99999999' 
WAVCIS,ioos:station:WAVCIS:CSI03:3,2010-07-02T09:00:00Z,29.4412,-92.0613,10.0,7.27,108.0,,'11111222,11111222,99999999' 
WAVCIS,ioos:station:WAVCIS:CSI03:3,2010-07-02T10:00:00Z,29.4412,-92.0613,10.0,6.853,99.0,,'11111222,11111222,99999999' 
WAVCIS,ioos:station:WAVCIS:CSI03:3,2010-07-02T11:00:00Z,29.4412,-92.0613,10.0,6.518,95.0,,'11111222,11111222,99999999' 
WAVCIS,ioos:station:WAVCIS:CSI03:3,2010-07-02T12:00:00Z,29.4412,-92.0613,10.0,7.21,99.0,,'11111222,11111222,99999999' 
WAVCIS,ioos:station:WAVCIS:CSI03:3,2010-07-02T13:00:00Z,29.4412,-92.0613,10.0,6.561,94.0,,'11111222,11111222,99999999' 
WAVCIS,ioos:station:WAVCIS:CSI03:3,2010-07-02T14:00:00Z,29.4412,-92.0613,10.0,6.98,90.0,,'11111222,11111222,99999999' 
WAVCIS,ioos:station:WAVCIS:CSI03:3,2010-07-02T15:00:00Z,29.4412,-92.0613,10.0,7.52,80.0,,'11111222,11111222,99999999' 
WAVCIS,ioos:station:WAVCIS:CSI03:3,2010-07-02T16:00:00Z,29.4412,-92.0613,10.0,7.14,99.0,,'11111222,11111222,99999999' 
WAVCIS,ioos:station:WAVCIS:CSI03:3,2010-07-02T17:00:00Z,29.4412,-92.0613,10.0,7.95,96.0,,'11111222,11111222,99999999' 
WAVCIS,ioos:station:WAVCIS:CSI03:3,2010-07-02T18:00:00Z,29.4412,-92.0613,10.0,7.95,104.0,,'11111222,11111222,99999999' 
WAVCIS,ioos:station:WAVCIS:CSI03:3,2010-07-02T19:00:00Z,29.4412,-92.0613,10.0,7.83,112.0,,'11111222,11111222,99999999' 
WAVCIS,ioos:station:WAVCIS:CSI03:3,2010-07-02T20:00:00Z,29.4412,-92.0613,10.0,6.688,121.0,,'11111222,11111222,99999999' 
WAVCIS,ioos:station:WAVCIS:CSI03:3,2010-07-02T21:00:00Z,29.4412,-92.0613,10.0,6.764,125.0,,'11111222,11111222,99999999' 
WAVCIS,ioos:station:WAVCIS:CSI03:3,2010-07-02T22:00:00Z,29.4412,-92.0613,10.0,6.664,128.0,,'11111222,11111222,99999999' 
WAVCIS,ioos:station:WAVCIS:CSI03:3,2010-07-02T23:00:00Z,29.4412,-92.0613,10.0,6.769,137.0,,'11111222,11111222,99999999' 
WAVCIS,ioos:station:WAVCIS:CSI03:3,2010-07-03T00:00:00Z,29.4412,-92.0613,10.0,6.062,135.0,,'11111222,11111222,99999999' 
WAVCIS,ioos:station:WAVCIS:CSI03:3,2010-07-03T01:00:00Z,29.4412,-92.0613,10.0,5.797,125.0,,'11111222,11111222,99999999' 
WAVCIS,ioos:station:WAVCIS:CSI03:3,2010-07-03T02:00:00Z,29.4412,-92.0613,10.0,5.102,132.0,,'11111222,11111222,99999999' 
WAVCIS,ioos:station:WAVCIS:CSI03:3,2010-07-03T03:00:00Z,29.4412,-92.0613,10.0,4.41,146.0,,'11111222,11111222,99999999' 
WAVCIS,ioos:station:WAVCIS:CSI03:3,2010-07-03T04:00:00Z,29.4412,-92.0613,10.0,4.33,134.0,,'11111222,11111222,99999999' 
WAVCIS,ioos:station:WAVCIS:CSI03:3,2010-07-03T05:00:00Z,29.4412,-92.0613,10.0,3.79,117.0,,'11111222,11111222,99999999' 
WAVCIS,ioos:station:WAVCIS:CSI03:3,2010-07-03T06:00:00Z,29.4412,-92.0613,10.0,2.778,110.0,,'11111222,11111222,99999999' 
WAVCIS,ioos:station:WAVCIS:CSI03:3,2010-07-03T07:00:00Z,29.4412,-92.0613,10.0,4.992,110.0,,'11111222,11111222,99999999' 
WAVCIS,ioos:station:WAVCIS:CSI03:3,2010-07-03T08:00:00Z,29.4412,-92.0613,10.0,4.638,115.0,,'11111222,11111222,99999999' 
WAVCIS,ioos:station:WAVCIS:CSI03:3,2010-07-03T09:00:00Z,29.4412,-92.0613,10.0,4.313,115.0,,'11111222,11111222,99999999' 
WAVCIS,ioos:station:WAVCIS:CSI03:3,2010-07-03T10:00:00Z,29.4412,-92.0613,10.0,3.131,119.0,,'11111222,11111222,99999999' 
WAVCIS,ioos:station:WAVCIS:CSI03:3,2010-07-03T11:00:00Z,29.4412,-92.0613,10.0,3.596,108.0,,'11111222,11111222,99999999' 
WAVCIS,ioos:station:WAVCIS:CSI03:3,2010-07-03T12:00:00Z,29.4412,-92.0613,10.0,5.195,106.0,,'11111222,11111222,99999999' 
WAVCIS,ioos:station:WAVCIS:CSI03:3,2010-07-03T13:00:00Z,29.4412,-92.0613,10.0,5.057,107.0,,'11111222,11111222,99999999' 
WAVCIS,ioos:station:WAVCIS:CSI03:3,2010-07-03T14:00:00Z,29.4412,-92.0613,10.0,2.815,121.0,,'11111222,11111222,99999999' 
WAVCIS,ioos:station:WAVCIS:CSI03:3,2010-07-03T15:00:00Z,29.4412,-92.0613,10.0,2.623,101.0,,'11111222,11111222,99999999' 
WAVCIS,ioos:station:WAVCIS:CSI03:3,2010-07-03T16:00:00Z,29.4412,-92.0613,10.0,2.698,116.0,,'11111222,11111222,99999999' 
WAVCIS,ioos:station:WAVCIS:CSI03:3,2010-07-03T17:00:00Z,29.4412,-92.0613,10.0,3.715,102.0,,'11111222,11111222,99999999' 
WAVCIS,ioos:station:WAVCIS:CSI03:3,2010-07-03T18:00:00Z,29.4412,-92.0613,10.0,1.899,95.0,,'11111222,11111222,99999999' 
WAVCIS,ioos:station:WAVCIS:CSI03:3,2010-07-03T19:00:00Z,29.4412,-92.0613,10.0,2.958,146.0,,'11111222,11111222,99999999' 
WAVCIS,ioos:station:WAVCIS:CSI03:3,2010-07-03T20:00:00Z,29.4412,-92.0613,10.0,3.551,156.0,,'11111222,11111222,99999999' 
WAVCIS,ioos:station:WAVCIS:CSI03:3,2010-07-03T21:00:00Z,29.4412,-92.0613,10.0,4.842,150.0,,'11111222,11111222,99999999' 
WAVCIS,ioos:station:WAVCIS:CSI03:3,2010-07-03T22:00:00Z,29.4412,-92.0613,10.0,7.17,119.0,,'11111222,11111222,99999999' 
WAVCIS,ioos:station:WAVCIS:CSI03:3,2010-07-03T23:00:00Z,29.4412,-92.0613,10.0,4.869,109.0,,'11111222,11111222,99999999' 
WAVCIS,ioos:station:WAVCIS:CSI03:3,2010-07-04T00:00:00Z,29.4412,-92.0613,10.0,6.718,112.0,,'11111222,11111222,99999999' 
WAVCIS,ioos:station:WAVCIS:CSI03:3,2010-07-04T01:00:00Z,29.4412,-92.0613,10.0,7.91,111.0,,'11111222,11111222,99999999' 
WAVCIS,ioos:station:WAVCIS:CSI03:3,2010-07-04T02:00:00Z,29.4412,-92.0613,10.0,9.04,106.0,,'11111222,11111222,99999999' 
WAVCIS,ioos:station:WAVCIS:CSI03:3,2010-07-04T03:00:00Z,29.4412,-92.0613,10.0,8.02,107.0,,'11111222,11111222,99999999' 
WAVCIS,ioos:station:WAVCIS:CSI03:3,2010-07-04T04:00:00Z,29.4412,-92.0613,10.0,9.73,112.0,,'11111222,11111222,99999999' 
WAVCIS,ioos:station:WAVCIS:CSI03:3,2010-07-04T05:00:00Z,29.4412,-92.0613,10.0,9.54,104.0,,'11111222,11111222,99999999' 
WAVCIS,ioos:station:WAVCIS:CSI03:3,2010-07-04T06:00:00Z,29.4412,-92.0613,10.0,8.9,110.0,,'11111222,11111222,99999999' 
WAVCIS,ioos:station:WAVCIS:CSI03:3,2010-07-04T07:00:00Z,29.4412,-92.0613,10.0,9.58,115.0,,'11111222,11111222,99999999' 
WAVCIS,ioos:station:WAVCIS:CSI03:3,2010-07-04T08:00:00Z,29.4412,-92.0613,10.0,8.74,114.0,,'11111222,11111222,99999999' 
WAVCIS,ioos:station:WAVCIS:CSI03:3,2010-07-04T09:00:00Z,29.4412,-92.0613,10.0,8.68,111.0,,'11111222,11111222,99999999' 
WAVCIS,ioos:station:WAVCIS:CSI03:3,2010-07-04T10:00:00Z,29.4412,-92.0613,10.0,8.35,114.0,,'11111222,11111222,99999999' 
WAVCIS,ioos:station:WAVCIS:CSI03:3,2010-07-04T11:00:00Z,29.4412,-92.0613,10.0,8.28,114.0,,'11111222,11111222,99999999' 
WAVCIS,ioos:station:WAVCIS:CSI03:3,2010-07-04T12:00:00Z,29.4412,-92.0613,10.0,6.779,108.0,,'11111222,11111222,99999999' 
WAVCIS,ioos:station:WAVCIS:CSI03:3,2010-07-04T13:00:00Z,29.4412,-92.0613,10.0,6.749,112.0,,'11111222,11111222,99999999' 
WAVCIS,ioos:station:WAVCIS:CSI03:3,2010-07-04T14:00:00Z,29.4412,-92.0613,10.0,5.762,106.0,,'11111222,11111222,99999999' 
WAVCIS,ioos:station:WAVCIS:CSI03:3,2010-07-04T15:00:00Z,29.4412,-92.0613,10.0,6.185,103.0,,'11111222,11111222,99999999' 
WAVCIS,ioos:station:WAVCIS:CSI03:3,2010-07-04T16:00:00Z,29.4412,-92.0613,10.0,5.468,94.0,,'11111222,11111222,99999999' 
WAVCIS,ioos:station:WAVCIS:CSI03:3,2010-07-04T17:00:00Z,29.4412,-92.0613,10.0,5.722,97.0,,'11111222,11111222,99999999' 
WAVCIS,ioos:station:WAVCIS:CSI03:3,2010-07-04T18:00:00Z,29.4412,-92.0613,10.0,4.826,113.0,,'11111222,11111222,99999999' 
WAVCIS,ioos:station:WAVCIS:CSI03:3,2010-07-04T19:00:00Z,29.4412,-92.0613,10.0,4.047,116.0,,'11111222,11111222,99999999' 
WAVCIS,ioos:station:WAVCIS:CSI03:3,2010-07-04T20:00:00Z,29.4412,-92.0613,10.0,2.663,131.0,,'11111222,11111222,99999999' 
WAVCIS,ioos:station:WAVCIS:CSI03:3,2010-07-04T21:00:00Z,29.4412,-92.0613,10.0,3.857,150.0,,'11111222,11111222,99999999' 
WAVCIS,ioos:station:WAVCIS:CSI03:3,2010-07-04T22:00:00Z,29.4412,-92.0613,10.0,3.944,147.0,,'11111222,11111222,99999999' 
WAVCIS,ioos:station:WAVCIS:CSI03:3,2010-07-04T23:00:00Z,29.4412,-92.0613,10.0,5.259,139.0,,'11111222,11111222,99999999' 
WAVCIS,ioos:station:WAVCIS:CSI03:3,2010-07-05T00:00:00Z,29.4412,-92.0613,10.0,5.319,116.0,,'11111222,11111222,99999999' 
WAVCIS,ioos:station:WAVCIS:CSI03:3,2010-07-05T01:00:00Z,29.4412,-92.0613,10.0,4.509,135.0,,'11111222,11111222,99999999' 
WAVCIS,ioos:station:WAVCIS:CSI03:3,2010-07-05T02:00:00Z,29.4412,-92.0613,10.0,6.995,138.0,,'11111222,11111222,99999999' 
WAVCIS,ioos:station:WAVCIS:CSI03:3,2010-07-05T03:00:00Z,29.4412,-92.0613,10.0,7.04,120.0,,'11111222,11111222,99999999' 
WAVCIS,ioos:station:WAVCIS:CSI03:3,2010-07-05T04:00:00Z,29.4412,-92.0613,10.0,8.96,121.0,,'11111222,11111222,99999999' 
WAVCIS,ioos:station:WAVCIS:CSI03:3,2010-07-05T05:00:00Z,29.4412,-92.0613,10.0,7.33,110.0,,'11111222,11111222,99999999' 
WAVCIS,ioos:station:WAVCIS:CSI03:3,2010-07-05T06:00:00Z,29.4412,-92.0613,10.0,7.75,111.0,,'11111222,11111222,99999999' 
WAVCIS,ioos:station:WAVCIS:CSI03:3,2010-07-05T07:00:00Z,29.4412,-92.0613,10.0,5.707,114.0,,'11111222,11111222,99999999' 
WAVCIS,ioos:station:WAVCIS:CSI03:3,2010-07-05T08:00:00Z,29.4412,-92.0613,10.0,6.064,106.0,,'11111222,11111222,99999999' 
WAVCIS,ioos:station:WAVCIS:CSI03:3,2010-07-05T09:00:00Z,29.4412,-92.0613,10.0,5.129,88.0,,'11111222,11111222,99999999' 
WAVCIS,ioos:station:WAVCIS:CSI03:3,2010-07-05T10:00:00Z,29.4412,-92.0613,10.0,5.07,70.0,,'11111222,11111222,99999999' 
WAVCIS,ioos:station:WAVCIS:CSI03:3,2010-07-05T11:00:00Z,29.4412,-92.0613,10.0,5.284,63.0,,'11111222,11111222,99999999' 
WAVCIS,ioos:station:WAVCIS:CSI03:3,2010-07-05T12:00:00Z,29.4412,-92.0613,10.0,5.465,58.0,,'11111222,11111222,99999999' 
WAVCIS,ioos:station:WAVCIS:CSI03:3,2010-07-05T13:00:00Z,29.4412,-92.0613,10.0,5.45,55.0,,'11111222,11111222,99999999' 
WAVCIS,ioos:station:WAVCIS:CSI03:3,2010-07-05T14:00:00Z,29.4412,-92.0613,10.0,5.459,56.0,,'11111222,11111222,99999999' 
WAVCIS,ioos:station:WAVCIS:CSI03:3,2010-07-05T15:00:00Z,29.4412,-92.0613,10.0,5.77,60.0,,'11111222,11111222,99999999' 
WAVCIS,ioos:station:WAVCIS:CSI03:3,2010-07-05T16:00:00Z,29.4412,-92.0613,10.0,5.41,61.0,,'11111222,11111222,99999999' 
WAVCIS,ioos:station:WAVCIS:CSI03:3,2010-07-05T17:00:00Z,29.4412,-92.0613,10.0,5.803,66.0,,'11111222,11111222,99999999' 
WAVCIS,ioos:station:WAVCIS:CSI03:3,2010-07-05T18:00:00Z,29.4412,-92.0613,10.0,3.919,68.0,,'11111222,11111222,99999999' 
WAVCIS,ioos:station:WAVCIS:CSI03:3,2010-07-05T19:00:00Z,29.4412,-92.0613,10.0,4.117,100.0,,'11111222,11111222,99999999' 
WAVCIS,ioos:station:WAVCIS:CSI03:3,2010-07-05T20:00:00Z,29.4412,-92.0613,10.0,6.798,101.0,,'11111222,11111222,99999999' 
WAVCIS,ioos:station:WAVCIS:CSI03:3,2010-07-05T21:00:00Z,29.4412,-92.0613,10.0,6.058,107.0,,'11111222,11111222,99999999' 
WAVCIS,ioos:station:WAVCIS:CSI03:3,2010-07-05T22:00:00Z,29.4412,-92.0613,10.0,4.387,56.0,,'11111222,11111222,99999999' 
WAVCIS,ioos:station:WAVCIS:CSI03:3,2010-07-05T23:00:00Z,29.4412,-92.0613,10.0,4.782,54.0,,'11111222,11111222,99999999' 
WAVCIS,ioos:station:WAVCIS:CSI03:3,2010-07-06T00:00:00Z,29.4412,-92.0613,10.0,7.62,61.0,,'11111222,11111222,99999999' 
WAVCIS,ioos:station:WAVCIS:CSI03:3,2010-07-06T01:00:00Z,29.4412,-92.0613,10.0,9.96,71.0,,'11111222,11111222,99999999' 
WAVCIS,ioos:station:WAVCIS:CSI03:3,2010-07-06T02:00:00Z,29.4412,-92.0613,10.0,13.08,70.0,,'11111222,11111222,99999999' 
WAVCIS,ioos:station:WAVCIS:CSI03:3,2010-07-06T03:00:00Z,29.4412,-92.0613,10.0,13.77,64.0,,'11111222,11111222,99999999' 
WAVCIS,ioos:station:WAVCIS:CSI03:3,2010-07-06T04:00:00Z,29.4412,-92.0613,10.0,15.09,74.0,,'11111222,11111222,99999999' 
WAVCIS,ioos:station:WAVCIS:CSI03:3,2010-07-06T05:00:00Z,29.4412,-92.0613,10.0,12.68,145.0,,'11111222,11111222,99999999' 
WAVCIS,ioos:station:WAVCIS:CSI03:3,2010-07-06T06:00:00Z,29.4412,-92.0613,10.0,13.76,160.0,,'11111222,11111222,99999999' 
WAVCIS,ioos:station:WAVCIS:CSI03:3,2010-07-06T07:00:00Z,29.4412,-92.0613,10.0,7.66,170.0,,'11111222,11111222,99999999' 
WAVCIS,ioos:station:WAVCIS:CSI03:3,2010-07-06T08:00:00Z,29.4412,-92.0613,10.0,11.0,126.0,,'11111222,11111222,99999999' 
WAVCIS,ioos:station:WAVCIS:CSI03:3,2010-07-06T09:00:00Z,29.4412,-92.0613,10.0,9.32,117.0,,'11111222,11111222,99999999' 
WAVCIS,ioos:station:WAVCIS:CSI03:3,2010-07-06T10:00:00Z,29.4412,-92.0613,10.0,3.71,239.0,,'11111222,11111222,99999999' 
WAVCIS,ioos:station:WAVCIS:CSI03:3,2010-07-06T11:00:00Z,29.4412,-92.0613,10.0,3.973,188.0,,'11111222,11111222,99999999' 
WAVCIS,ioos:station:WAVCIS:CSI03:3,2010-07-06T12:00:00Z,29.4412,-92.0613,10.0,4.092,233.0,,'11111222,11111222,99999999' 
WAVCIS,ioos:station:WAVCIS:CSI03:3,2010-07-06T13:00:00Z,29.4412,-92.0613,10.0,2.18,213.0,,'11111222,11111222,99999999' 
WAVCIS,ioos:station:WAVCIS:CSI03:3,2010-07-06T14:00:00Z,29.4412,-92.0613,10.0,0.698,266.0,,'11111222,11111222,99999999' 
WAVCIS,ioos:station:WAVCIS:CSI03:3,2010-07-06T15:00:00Z,29.4412,-92.0613,10.0,2.767,167.0,,'11111222,11111222,99999999' 
WAVCIS,ioos:station:WAVCIS:CSI03:3,2010-07-06T16:00:00Z,29.4412,-92.0613,10.0,7.18,161.0,,'11111222,11111222,99999999' 
WAVCIS,ioos:station:WAVCIS:CSI03:3,2010-07-06T17:00:00Z,29.4412,-92.0613,10.0,4.106,118.0,,'11111222,11111222,99999999' 
WAVCIS,ioos:station:WAVCIS:CSI03:3,2010-07-06T18:00:00Z,29.4412,-92.0613,10.0,2.538,95.0,,'11111222,11111222,99999999' 
WAVCIS,ioos:station:WAVCIS:CSI03:3,2010-07-06T19:00:00Z,29.4412,-92.0613,10.0,4.92,75.0,,'11111222,11111222,99999999' 
WAVCIS,ioos:station:WAVCIS:CSI03:3,2010-07-06T20:00:00Z,29.4412,-92.0613,10.0,5.377,84.0,,'11111222,11111222,99999999' 
WAVCIS,ioos:station:WAVCIS:CSI03:3,2010-07-06T21:00:00Z,29.4412,-92.0613,10.0,6.86,90.0,,'11111222,11111222,99999999' 
WAVCIS,ioos:station:WAVCIS:CSI03:3,2010-07-06T22:00:00Z,29.4412,-92.0613,10.0,9.4,106.0,,'11111222,11111222,99999999' 
WAVCIS,ioos:station:WAVCIS:CSI03:3,2010-07-06T23:00:00Z,29.4412,-92.0613,10.0,8.36,102.0,,'11111222,11111222,99999999' 
WAVCIS,ioos:station:WAVCIS:CSI03:3,2010-07-07T00:00:00Z,29.4412,-92.0613,10.0,8.21,106.0,,'11111222,11111222,99999999' 
WAVCIS,ioos:station:WAVCIS:CSI03:3,2010-07-07T01:00:00Z,29.4412,-92.0613,10.0,7.34,118.0,,'11111222,11111222,99999999' 
WAVCIS,ioos:station:WAVCIS:CSI03:3,2010-07-07T02:00:00Z,29.4412,-92.0613,10.0,9.61,136.0,,'11111222,11111222,99999999' 
WAVCIS,ioos:station:WAVCIS:CSI03:3,2010-07-07T03:00:00Z,29.4412,-92.0613,10.0,9.32,140.0,,'11111222,11111222,99999999' 
WAVCIS,ioos:station:WAVCIS:CSI03:3,2010-07-07T04:00:00Z,29.4412,-92.0613,10.0,8.83,137.0,,'11111222,11111222,99999999' 
WAVCIS,ioos:station:WAVCIS:CSI03:3,2010-07-07T05:00:00Z,29.4412,-92.0613,10.0,10.52,132.0,,'11111222,11111222,99999999' 
WAVCIS,ioos:station:WAVCIS:CSI03:3,2010-07-07T06:00:00Z,29.4412,-92.0613,10.0,10.43,134.0,,'11111222,11111222,99999999' 
WAVCIS,ioos:station:WAVCIS:CSI03:3,2010-07-07T07:00:00Z,29.4412,-92.0613,10.0,6.587,137.0,,'11111222,11111222,99999999' 
WAVCIS,ioos:station:WAVCIS:CSI03:3,2010-07-07T08:00:00Z,29.4412,-92.0613,10.0,9.93,136.0,,'11111222,11111222,99999999' 
WAVCIS,ioos:station:WAVCIS:CSI03:3,2010-07-07T09:00:00Z,29.4412,-92.0613,10.0,8.63,151.0,,'11111222,11111222,99999999' 
WAVCIS,ioos:station:WAVCIS:CSI03:3,2010-07-07T10:00:00Z,29.4412,-92.0613,10.0,10.37,146.0,,'11111222,11111222,99999999' 
WAVCIS,ioos:station:WAVCIS:CSI03:3,2010-07-07T11:00:00Z,29.4412,-92.0613,10.0,7.88,172.0,,'11111222,11111222,99999999' 
WAVCIS,ioos:station:WAVCIS:CSI03:3,2010-07-07T12:00:00Z,29.4412,-92.0613,10.0,6.979,151.0,,'11111222,11111222,99999999' 
WAVCIS,ioos:station:WAVCIS:CSI03:3,2010-07-07T13:00:00Z,29.4412,-92.0613,10.0,9.19,153.0,,'11111222,11111222,99999999' 
WAVCIS,ioos:station:WAVCIS:CSI03:3,2010-07-07T14:00:00Z,29.4412,-92.0613,10.0,10.9,161.0,,'11111222,11111222,99999999' 
WAVCIS,ioos:station:WAVCIS:CSI03:3,2010-07-07T15:00:00Z,29.4412,-92.0613,10.0,11.28,169.0,,'11111222,11111222,99999999' 
WAVCIS,ioos:station:WAVCIS:CSI03:3,2010-07-07T16:00:00Z,29.4412,-92.0613,10.0,8.96,158.0,,'11111222,11111222,99999999' 
WAVCIS,ioos:station:WAVCIS:CSI03:3,2010-07-07T17:00:00Z,29.4412,-92.0613,10.0,10.44,143.0,,'11111222,11111222,99999999' 
WAVCIS,ioos:station:WAVCIS:CSI03:3,2010-07-07T18:00:00Z,29.4412,-92.0613,10.0,10.56,132.0,,'11111222,11111222,99999999' 
WAVCIS,ioos:station:WAVCIS:CSI03:3,2010-07-07T19:00:00Z,29.4412,-92.0613,10.0,11.0,147.0,,'11111222,11111222,99999999' 
WAVCIS,ioos:station:WAVCIS:CSI03:3,2010-07-07T20:00:00Z,29.4412,-92.0613,10.0,11.82,159.0,,'11111222,11111222,99999999' 
WAVCIS,ioos:station:WAVCIS:CSI03:3,2010-07-07T21:00:00Z,29.4412,-92.0613,10.0,11.57,152.0,,'11111222,11111222,99999999' 
WAVCIS,ioos:station:WAVCIS:CSI03:3,2010-07-07T22:00:00Z,29.4412,-92.0613,10.0,10.17,138.0,,'11111222,11111222,99999999' 
WAVCIS,ioos:station:WAVCIS:CSI03:3,2010-07-07T23:00:00Z,29.4412,-92.0613,10.0,9.7,127.0,,'11111222,11111222,99999999' 
WAVCIS,ioos:station:WAVCIS:CSI03:3,2010-07-08T00:00:00Z,29.4412,-92.0613,10.0,10.13,124.0,,'11111222,11111222,99999999' 
WAVCIS,ioos:station:WAVCIS:CSI03:3,2010-07-08T01:00:00Z,29.4412,-92.0613,10.0,8.14,125.0,,'11111222,11111222,99999999' 
WAVCIS,ioos:station:WAVCIS:CSI03:3,2010-07-08T02:00:00Z,29.4412,-92.0613,10.0,7.15,128.0,,'11111222,11111222,99999999' 
WAVCIS,ioos:station:WAVCIS:CSI03:3,2010-07-08T03:00:00Z,29.4412,-92.0613,10.0,7.62,128.0,,'11111222,11111222,99999999' 
WAVCIS,ioos:station:WAVCIS:CSI03:3,2010-07-08T04:00:00Z,29.4412,-92.0613,10.0,8.78,108.0,,'11111222,11111222,99999999' 
WAVCIS,ioos:station:WAVCIS:CSI03:3,2010-07-08T05:00:00Z,29.4412,-92.0613,10.0,8.21,110.0,,'11111222,11111222,99999999' 
WAVCIS,ioos:station:WAVCIS:CSI03:3,2010-07-08T06:00:00Z,29.4412,-92.0613,10.0,7.43,115.0,,'11111222,11111222,99999999' 
WAVCIS,ioos:station:WAVCIS:CSI03:3,2010-07-08T07:00:00Z,29.4412,-92.0613,10.0,6.546,111.0,,'11111222,11111222,99999999' 
WAVCIS,ioos:station:WAVCIS:CSI03:3,2010-07-08T08:00:00Z,29.4412,-92.0613,10.0,9.1,127.0,,'11111222,11111222,99999999' 
WAVCIS,ioos:station:WAVCIS:CSI03:3,2010-07-08T09:00:00Z,29.4412,-92.0613,10.0,8.4,129.0,,'11111222,11111222,99999999' 
WAVCIS,ioos:station:WAVCIS:CSI03:3,2010-07-08T10:00:00Z,29.4412,-92.0613,10.0,8.45,131.0,,'11111222,11111222,99999999' 
WAVCIS,ioos:station:WAVCIS:CSI03:3,2010-07-08T11:00:00Z,29.4412,-92.0613,10.0,7.53,126.0,,'11111222,11111222,99999999' 
WAVCIS,ioos:station:WAVCIS:CSI03:3,2010-07-08T12:00:00Z,29.4412,-92.0613,10.0,8.44,117.0,,'11111222,11111222,99999999' 
WAVCIS,ioos:station:WAVCIS:CSI03:3,2010-07-08T13:00:00Z,29.4412,-92.0613,10.0,8.06,103.0,,'11111222,11111222,99999999' 
WAVCIS,ioos:station:WAVCIS:CSI03:3,2010-07-08T14:00:00Z,29.4412,-92.0613,10.0,7.78,96.0,,'11111222,11111222,99999999' 
WAVCIS,ioos:station:WAVCIS:CSI03:3,2010-07-08T15:00:00Z,29.4412,-92.0613,10.0,7.17,105.0,,'11111222,11111222,99999999' 
WAVCIS,ioos:station:WAVCIS:CSI03:3,2010-07-08T16:00:00Z,29.4412,-92.0613,10.0,7.5,111.0,,'11111222,11111222,99999999' 
WAVCIS,ioos:station:WAVCIS:CSI03:3,2010-07-08T17:00:00Z,29.4412,-92.0613,10.0,7.61,128.0,,'11111222,11111222,99999999' 
WAVCIS,ioos:station:WAVCIS:CSI03:3,2010-07-08T18:00:00Z,29.4412,-92.0613,10.0,8.03,131.0,,'11111222,11111222,99999999' 
WAVCIS,ioos:station:WAVCIS:CSI03:3,2010-07-08T19:00:00Z,29.4412,-92.0613,10.0,7.69,132.0,,'11111222,11111222,99999999' 
WAVCIS,ioos:station:WAVCIS:CSI03:3,2010-07-08T20:00:00Z,29.4412,-92.0613,10.0,7.21,131.0,,'11111222,11111222,99999999' 
WAVCIS,ioos:station:WAVCIS:CSI03:3,2010-07-08T21:00:00Z,29.4412,-92.0613,10.0,6.973,136.0,,'11111222,11111222,99999999' 
WAVCIS,ioos:station:WAVCIS:CSI03:3,2010-07-08T22:00:00Z,29.4412,-92.0613,10.0,5.88,149.0,,'11111222,11111222,99999999' 
WAVCIS,ioos:station:WAVCIS:CSI03:3,2010-07-08T23:00:00Z,29.4412,-92.0613,10.0,6.151,151.0,,'11111222,11111222,99999999' 
WAVCIS,ioos:station:WAVCIS:CSI03:3,2010-07-09T00:00:00Z,29.4412,-92.0613,10.0,5.756,147.0,,'11111222,11111222,99999999' 
WAVCIS,ioos:station:WAVCIS:CSI03:3,2010-07-09T01:00:00Z,29.4412,-92.0613,10.0,5.442,155.0,,'11111222,11111222,99999999' 
WAVCIS,ioos:station:WAVCIS:CSI03:3,2010-07-09T02:00:00Z,29.4412,-92.0613,10.0,4.855,158.0,,'11111222,11111222,99999999' 
WAVCIS,ioos:station:WAVCIS:CSI03:3,2010-07-09T03:00:00Z,29.4412,-92.0613,10.0,3.354,161.0,,'11111222,11111222,99999999' 
WAVCIS,ioos:station:WAVCIS:CSI03:3,2010-07-09T04:00:00Z,29.4412,-92.0613,10.0,3.195,177.0,,'11111222,11111222,99999999' 
WAVCIS,ioos:station:WAVCIS:CSI03:3,2010-07-09T05:00:00Z,29.4412,-92.0613,10.0,2.619,176.0,,'11111222,11111222,99999999' 